TimeEDT,TemperatureF,Dew PointF,Humidity,Sea Level PressureIn,VisibilityMPH,Wind Direction,Wind SpeedMPH,Gust SpeedMPH,PrecipitationIn,Events,Conditions,WindDirDegrees,DateUTC
12:15 AM,63.7,61.7,93,30.03,10.0,Calm,Calm,-,N/A,,Clear,0,2012-10-06 04:15:00
12:35 AM,62.6,61.3,96,30.03,10.0,Calm,Calm,-,N/A,,Clear,0,2012-10-06 04:35:00
12:55 AM,61.5,60.3,96,30.02,10.0,Calm,Calm,-,N/A,,Clear,0,2012-10-06 04:55:00
1:15 AM,61.7,60.6,96,30.03,10.0,Calm,Calm,-,N/A,,Clear,0,2012-10-06 05:15:00
1:35 AM,62.2,60.6,94,30.03,10.0,Calm,Calm,-,N/A,,Clear,0,2012-10-06 05:35:00
1:55 AM,61.5,60.3,96,30.03,10.0,Calm,Calm,-,N/A,,Clear,0,2012-10-06 05:55:00
2:15 AM,61.0,60.3,97,30.02,7.0,Calm,Calm,-,N/A,,Clear,0,2012-10-06 06:15:00
2:35 AM,61.5,61.0,98,30.02,7.0,Calm,Calm,-,N/A,,Clear,0,2012-10-06 06:35:00
2:55 AM,61.2,60.6,98,30.01,7.0,Calm,Calm,-,N/A,,Clear,0,2012-10-06 06:55:00
3:15 AM,61.0,60.4,98,30.00,7.0,Calm,Calm,-,N/A,,Clear,0,2012-10-06 07:15:00
3:35 AM,61.2,60.8,99,30.00,3.0,Calm,Calm,-,N/A,,Clear,0,2012-10-06 07:35:00
3:55 AM,61.3,61.3,100,29.99,5.0,South,3.5,-,N/A,,Clear,180,2012-10-06 07:55:00
4:15 AM,62.1,61.5,98,29.98,7.0,Calm,Calm,-,N/A,,Clear,0,2012-10-06 08:15:00
4:35 AM,61.7,61.0,97,29.98,7.0,Calm,Calm,-,N/A,,Clear,0,2012-10-06 08:35:00
4:55 AM,62.1,61.0,96,29.98,10.0,South,3.5,-,N/A,,Clear,190,2012-10-06 08:55:00
5:35 AM,61.5,60.6,97,29.98,7.0,South,3.5,-,N/A,,Clear,190,2012-10-06 09:35:00
5:55 AM,61.3,60.8,98,29.98,7.0,South,3.5,-,N/A,,Clear,190,2012-10-06 09:55:00
6:15 AM,61.5,61.0,98,29.98,7.0,South,3.5,-,N/A,,Clear,190,2012-10-06 10:15:00
6:35 AM,60.4,60.1,99,29.99,4.0,Calm,Calm,-,N/A,,Clear,0,2012-10-06 10:35:00
6:55 AM,60.6,60.6,100,29.99,5.0,SSW,3.5,-,N/A,,Clear,200,2012-10-06 10:55:00
7:15 AM,61.2,61.2,100,29.99,3.0,SSW,3.5,-,N/A,,Clear,200,2012-10-06 11:15:00
7:35 AM,60.8,60.8,100,29.99,2.0,Calm,Calm,-,N/A,,Clear,0,2012-10-06 11:35:00
7:55 AM,60.4,60.4,100,29.99,1.5,Calm,Calm,-,N/A,,Mist,0,2012-10-06 11:55:00
8:15 AM,61.7,61.7,100,30.00,3.0,Calm,Calm,-,N/A,,Clear,0,2012-10-06 12:15:00
8:35 AM,63.3,63.3,100,30.00,3.0,Calm,Calm,-,N/A,,Clear,0,2012-10-06 12:35:00
8:55 AM,64.9,64.8,99,30.00,5.0,Calm,Calm,-,N/A,,Clear,0,2012-10-06 12:55:00
9:15 AM,66.7,64.9,94,30.00,7.0,SW,3.5,-,N/A,,Clear,220,2012-10-06 13:15:00
9:35 AM,68.9,65.8,90,30.00,10.0,SW,5.8,-,N/A,,Clear,230,2012-10-06 13:35:00
9:55 AM,70.7,66.2,86,30.00,10.0,SW,6.9,-,N/A,,Clear,220,2012-10-06 13:55:00
10:15 AM,72.3,65.5,79,30.00,10.0,WSW,8.1,-,N/A,,Clear,250,2012-10-06 14:15:00
10:35 AM,73.8,64.9,74,29.99,10.0,WSW,6.9,-,N/A,,Clear,250,2012-10-06 14:35:00
10:55 AM,75.4,65.3,71,29.98,10.0,WSW,5.8,-,N/A,,Clear,240,2012-10-06 14:55:00
11:15 AM,77.0,64.6,65,29.98,10.0,SW,9.2,-,N/A,,Clear,230,2012-10-06 15:15:00
11:35 AM,78.1,64.0,62,29.97,10.0,SW,8.1,-,N/A,,Clear,230,2012-10-06 15:35:00
11:55 AM,79.0,63.9,60,29.97,10.0,SSW,9.2,-,N/A,,Clear,210,2012-10-06 15:55:00
12:15 PM,79.9,63.0,56,29.96,10.0,SW,10.4,-,N/A,,Clear,220,2012-10-06 16:15:00
12:35 PM,80.4,61.5,52,29.95,10.0,SSW,10.4,18.4,N/A,,Clear,210,2012-10-06 16:35:00
12:55 PM,81.1,61.5,51,29.95,10.0,SW,12.7,16.1,N/A,,Clear,230,2012-10-06 16:55:00
1:15 PM,81.7,60.4,48,29.93,10.0,SSW,10.4,16.1,N/A,,Clear,210,2012-10-06 17:15:00
1:35 PM,81.7,59.9,47,29.92,10.0,SW,10.4,-,N/A,,Clear,230,2012-10-06 17:35:00
1:55 PM,82.0,60.3,47,29.92,10.0,SSW,8.1,-,N/A,,Clear,210,2012-10-06 17:55:00
2:15 PM,82.6,60.4,47,29.91,10.0,WSW,4.6,-,N/A,,Clear,250,2012-10-06 18:15:00
2:35 PM,82.4,60.6,48,29.90,10.0,West,6.9,-,N/A,,Clear,260,2012-10-06 18:35:00
2:55 PM,82.9,59.9,46,29.90,10.0,SW,6.9,-,N/A,,Clear,220,2012-10-06 18:55:00
3:15 PM,83.1,59.9,45,29.90,10.0,SW,8.1,-,N/A,,Clear,230,2012-10-06 19:15:00
3:35 PM,83.3,59.5,44,29.90,10.0,SW,5.8,-,N/A,,Scattered Clouds,230,2012-10-06 19:35:00
3:55 PM,83.3,59.7,45,29.90,10.0,West,6.9,-,N/A,,Scattered Clouds,270,2012-10-06 19:55:00
4:15 PM,83.1,60.4,46,29.90,10.0,NNW,3.5,-,N/A,,Scattered Clouds,330,2012-10-06 20:15:00
4:35 PM,82.8,60.1,46,29.89,10.0,WSW,4.6,-,N/A,,Clear,250,2012-10-06 20:35:00
4:55 PM,82.0,60.3,47,29.90,10.0,WSW,3.5,-,N/A,,Scattered Clouds,250,2012-10-06 20:55:00
5:15 PM,82.2,60.8,48,29.89,10.0,Calm,Calm,-,N/A,,Clear,0,2012-10-06 21:15:00
5:35 PM,82.4,60.4,47,29.89,10.0,WNW,3.5,-,N/A,,Clear,290,2012-10-06 21:35:00
5:55 PM,81.9,61.2,49,29.90,10.0,Calm,Calm,-,N/A,,Clear,0,2012-10-06 21:55:00
6:15 PM,81.3,61.9,52,29.90,10.0,Calm,Calm,-,N/A,,Clear,0,2012-10-06 22:15:00
6:35 PM,80.1,63.0,56,29.91,10.0,Calm,Calm,-,N/A,,Clear,0,2012-10-06 22:35:00
6:55 PM,78.1,63.7,61,29.91,10.0,Calm,Calm,-,N/A,,Clear,0,2012-10-06 22:55:00
7:15 PM,76.3,65.7,70,29.92,10.0,Calm,Calm,-,N/A,,Clear,0,2012-10-06 23:15:00
7:35 PM,74.7,64.8,71,29.92,10.0,Calm,Calm,-,N/A,,Clear,0,2012-10-06 23:35:00
7:55 PM,72.7,66.2,80,29.92,10.0,ESE,3.5,-,N/A,,Clear,120,2012-10-06 23:55:00
8:15 PM,73.0,65.1,76,29.93,10.0,Calm,Calm,-,N/A,,Clear,0,2012-10-07 00:15:00
8:35 PM,73.2,64.0,73,29.93,10.0,East,3.5,-,N/A,,Scattered Clouds,100,2012-10-07 00:35:00
8:55 PM,72.3,64.4,76,29.93,10.0,Calm,Calm,-,N/A,,Mostly Cloudy,0,2012-10-07 00:55:00
9:15 PM,72.3,62.8,72,29.93,10.0,Calm,Calm,-,N/A,,Scattered Clouds,0,2012-10-07 01:15:00
9:35 PM,72.0,62.6,72,29.94,10.0,Calm,Calm,-,N/A,,Clear,0,2012-10-07 01:35:00
9:55 PM,70.5,63.9,79,29.94,10.0,SE,4.6,-,N/A,,Clear,130,2012-10-07 01:55:00
10:15 PM,70.5,63.7,79,29.94,10.0,SE,4.6,-,N/A,,Scattered Clouds,130,2012-10-07 02:15:00
10:35 PM,71.1,63.1,76,29.95,10.0,SSE,3.5,-,N/A,,Mostly Cloudy,150,2012-10-07 02:35:00
10:55 PM,70.5,63.3,78,29.94,10.0,Calm,Calm,-,N/A,,Scattered Clouds,0,2012-10-07 02:55:00
11:15 PM,69.8,63.1,79,29.95,10.0,SE,3.5,-,N/A,,Clear,130,2012-10-07 03:15:00
11:35 PM,69.1,63.5,82,29.95,10.0,SE,3.5,-,N/A,,Clear,130,2012-10-07 03:35:00
11:55 PM,69.4,63.7,82,29.95,10.0,SE,3.5,-,N/A,,Scattered Clouds,140,2012-10-07 03:55:00